User: anonymous   Login
Location: Scultetus-Sternwarte G�rlitz
(51.1356°N, 14.9514°E)
Time: 18:29:35
(UTC+01:00)
Language:

Iridium 3 - Orbit

View from above orbital plane
View from above orbital plane
View from above satellite
View from above satellite

Ground track
Ground track

The orbit data is extracted from the following two-line orbital elements,

1 25431U 98048A   17052.58899979  .00000132  00000-0  40248-4 0  9991
2 25431  86.3967 304.0436 0002171  80.8611 331.4743 14.34218580969040
Epoch (UTC): 21 February 2017 14:08:09
Eccentricity: 0.0002171
inclination: 86.3967°
perigee height: 776 km
apogee height: 779 km
right ascension of ascending node: 304.0436°
argument of perigee: 80.8611°
revolutions per day: 14.34218580
mean anomaly at epoch: 331.4743°
orbit number at epoch: 96904

The dashed part of the orbit path shows where the satellite is in the earth's shadow,  

DLR